Location: Unspecified
(41.5000°N, 0.0000°E)
Time: 08:24:39
(UTC+00:00)

Vanguard 2 - Pass Details

Date: 26 June 2019
Orbit: 553 x 2938 km, 32.9° (Epoch: 22 July)

Event Time Altitude Azimuth Distance (km) Brightness Sun altitude
Rises 06:55:54 0° 228° (SW) 2,765 9.9 24.9°
Reaches altitude 10° 06:58:16 10° 212° (SSW) 1,972 9.4 25.3°
Maximum altitude 07:01:48 24° 158° (SSE) 1,490 9.4 26.0°
Drops below altitude 10° 07:06:24 10° 106° (ESE) 2,624 11.5 26.8°
Sets 07:10:07 0° 94° (E) 3,963 12.4 27.5°
